642  
ASUS45 KSLC 290110  
RWRUT  
 
UTAH REGIONAL WEATHER ROUNDUP  
NATIONAL WEATHER SERVICE SALT LAKE CITY UT  
600 PM MST WED FEB 28 2024  
 
UTZ101>105-107>111-290200-  
 
NORTHERN UTAH  
 
CITY SKY/WX TMP DP RH WIND PRES REMARKS
 
BRIGHAM CITY CLEAR 46 15 28 CALM 30.12S  
HILL AFB NOT AVBL  
LOGAN CLEAR 37 19 48 SW3 30.11F  
OGDEN CLEAR 44 21 40 N6 30.09F  
SALT LAKE CITY CLEAR 44 25 47 N7 30.09S  
TOOELE VALLEY CLEAR 39 23 52 CALM 30.11S  
WENDOVER CLEAR 42 19 39 CALM 30.10F  
HEBER CITY CLEAR 38 17 42 CALM 30.07S  
WEST JORDAN CLEAR 45 13 27 CALM 30.09F  
 

 
 
UTZ024>027-106-112>120-290200-  
 
CENTRAL/NORTHEAST UTAH  
 
CITY SKY/WX TMP DP RH WIND PRES REMARKS
 
PROVO AIRPORT CLEAR 41 24 51 NW6 30.09F  
MOAB/CANYONLAN CLEAR 42 5 21 NW6 30.12F  
DELTA CLEAR 48 1 14 E6 30.07S  
MANTI CLEAR 43 22 43 CALM 30.08S  
PRICE CLEAR 38 5 25 CALM 30.13S  
RICHFIELD N/A 45 19 36 NE8 30.06R  
ROOSEVELT CLEAR 37 7 28 CALM 30.13F  
DUCHESNE CLEAR 34 7 32 SE5 30.12S WCI 30  
VERNAL CLEAR 38 7 27 CALM 30.13S  
 

 
 
UTZ121>131-290200-  
 
SOUTHERN UTAH  
 
CITY SKY/WX TMP DP RH WIND PRES REMARKS
 
BRYCE CANYON CLEAR 33 15 47 S7 30.11S WCI 27  
CEDAR CITY CLEAR 50 9 19 SW10 30.05S  
MILFORD CLEAR 51 11 20 N7 30.04S  
PANGUITCH N/A 45 7 21 SE9G15 30.09S  
ST GEORGE CLEAR 62 13 14 N3 30.01F  
HANKSVILLE CLEAR 43 1 17 NE8 30.17R  
KANAB CLEAR 52 7 16 E9 30.11R  
BLANDING CLEAR 44 1 17 S7 30.12S  
 

 
 
REGIONAL REPORTS COLORADO/ARIZONA  
 
CITY SKY/WX TMP DP RH WIND PRES REMARKS
 
CRAIG, CO CLEAR 26 7 44 E7 30.14F WCI 18  
GRAND JUNCTION CLEAR 43 3 19 W6 30.14F  
RIFLE, CO CLEAR 40 2 20 S3 30.15S  
MONTROSE, CO CLEAR 42 9 25 NW3 30.15S  
CORTEZ, CO CLEAR 43 12 28 S7 30.12R  
COLORADO CITY CLEAR 55 9 15 SE3 30.08S  
PAGE, AZ CLEAR 51 5 15 NE6 30.09S  
GRAND CANYON CLEAR 46 12 25 NE10 30.10R  
KINGMAN, AZ CLEAR 61 21 21 N14 30.00R  
FLAGSTAFF, AZ CLEAR 45 14 28 E7 30.09S  
 

 
 
REGIONAL REPORTS NEVADA/IDAHO/WYOMING  
 
CITY SKY/WX TMP DP RH WIND PRES REMARKS
 
LAS VEGAS, NV CLEAR 64 11 12 N5 30.00F  
ELY, NV CLEAR 48 18 30 SW5 30.03R  
ELKO, NV CLEAR 50 23 34 CALM 29.99F  
POCATELLO, ID CLEAR 37 21 52 S16 30.07F WCI 28  
BURLEY, ID CLEAR 43 25 49 S10 30.02F  
EVANSTON, WY NOT AVBL  
ROCK SPRINGS, CLEAR 31 19 61 W10 30.09R WCI 22  
KEMMERER, WY CLEAR 23 12 63 N8 30.08S WCI 14  
 

 
 
 
CLICK HERE TO GO TO PREVIOUS BULLETINS.

The Nexlab UT Page Main Text Page